When you browse on this site, cookies collect data to enhance your experience and personalize the content and advertising you see.
Visit our Privacy Policy to learn more. By continuing to use the site, you agree to this use of cookies and data.
  • în România
  • Lista ţărilor
  • Pe 7 zile
  • Temperatura apei
  • Hartă satelitară
  • Meteo pe hartă
  • Widget-uri
  • user-avatar
    Intrare

    Meteo pe oră la Oklahoma-Siti

    Astăzi, 21 Aprilie, Duminică

    Timp Temperatura Precipitaţii Vânt Presiune Umiditate
    00:00 +17°C° 0 mm 9 m/s 724 mmHg 62%
    01:00 +17°C° 0 mm 9 m/s 724 mmHg 65%
    02:00 +16°C° 0 mm 9 m/s 724 mmHg 69%
    03:00 +16°C° 0 mm 9 m/s 724 mmHg 70%
    04:00 +16°C° 0 mm 9 m/s 724 mmHg 71%
    05:00 +16°C° 0 mm 9 m/s 725 mmHg 72%
    06:00 +17°C° 0 mm 10 m/s 725 mmHg 70%
    07:00 +19°C° 0 mm 10 m/s 725 mmHg 69%
    08:00 +21°C° 0 mm 11 m/s 725 mmHg 68%
    09:00 +22°C° 0 mm 11 m/s 725 mmHg 64%
    10:00 +24°C° 0 mm 11 m/s 725 mmHg 60%
    11:00 +26°C° 0 mm 12 m/s 725 mmHg 56%
    12:00 +27°C° 0 mm 12 m/s 725 mmHg 56%
    13:00 +27°C° 0 mm 12 m/s 724 mmHg 55%
    14:00 +28°C° 0 mm 12 m/s 724 mmHg 55%
    15:00 +28°C° 0 mm 11 m/s 723 mmHg 57%
    16:00 +27°C° 0 mm 10 m/s 723 mmHg 60%
    17:00 +26°C° 0 mm 9 m/s 723 mmHg 63%
    18:00 +26°C° 0 mm 10 m/s 723 mmHg 64%
    19:00 +24°C° 0 mm 10 m/s 723 mmHg 65%
    20:00 +23°C° 0 mm 10 m/s 724 mmHg 66%
    21:00 +23°C° 0 mm 10 m/s 724 mmHg 69%
    22:00 +22°C° 0 mm 10 m/s 724 mmHg 72%
    23:00 +22°C° 0 mm 10 m/s 724 mmHg 75%

    Mâine, 22 Aprilie, Luni

    Timp Temperatura Precipitaţii Vânt Presiune Umiditate
    00:00 +21°C° 0 mm 10 m/s 724 mmHg 77%
    01:00 +21°C° 0 mm 10 m/s 724 mmHg 78%
    02:00 +19°C° 0 mm 10 m/s 724 mmHg 80%
    03:00 +18°C° 0 mm 9 m/s 725 mmHg 82%
    04:00 +18°C° 0 mm 9 m/s 725 mmHg 83%
    05:00 +17°C° 0 mm 8 m/s 725 mmHg 85%
    06:00 +20°C° 0 mm 8 m/s 726 mmHg 82%
    07:00 +21°C° 0 mm 8 m/s 727 mmHg 78%
    08:00 +22°C° 0 mm 8 m/s 727 mmHg 74%
    09:00 +24°C° 0 mm 8 m/s 728 mmHg 70%
    10:00 +26°C° 0 mm 7 m/s 728 mmHg 67%
    11:00 +27°C° 0 mm 7 m/s 728 mmHg 63%
    12:00 +28°C° 0 mm 6 m/s 728 mmHg 62%
    13:00 +28°C° 0 mm 6 m/s 728 mmHg 61%
    14:00 +29°C° 0 mm 6 m/s 727 mmHg 60%
    15:00 +28°C° 0 mm 6 m/s 727 mmHg 64%
    16:00 +27°C° 0 mm 5 m/s 727 mmHg 68%
    17:00 +26°C° 0 mm 5 m/s 727 mmHg 73%
    18:00 +23°C° 0.1 mm 5 m/s 727 mmHg 75%
    19:00 +22°C° 0.1 mm 5 m/s 727 mmHg 77%
    20:00 +21°C° 0.1 mm 5 m/s 727 mmHg 79%
    21:00 +20°C° 0.2 mm 5 m/s 727 mmHg 83%
    22:00 +20°C° 0.2 mm 5 m/s 727 mmHg 86%
    23:00 +20°C° 0.2 mm 4 m/s 727 mmHg 89%

    Poimâine, 23 Aprilie, Marţi

    Timp Temperatura Precipitaţii Vânt Presiune Umiditate
    00:00 +20°C° 0.2 mm 5 m/s 727 mmHg 89%
    01:00 +20°C° 0.2 mm 5 m/s 727 mmHg 88%
    02:00 +20°C° 0.2 mm 6 m/s 727 mmHg 88%
    03:00 +20°C° 3.4 mm 5 m/s 727 mmHg 89%
    04:00 +19°C° 3.4 mm 5 m/s 727 mmHg 91%
    05:00 +19°C° 3.4 mm 5 m/s 727 mmHg 93%
    06:00 +19°C° 0.3 mm 5 m/s 727 mmHg 91%
    07:00 +19°C° 0.3 mm 6 m/s 728 mmHg 90%
    08:00 +20°C° 0.3 mm 6 m/s 729 mmHg 88%
    09:00 +19°C° 0.2 mm 6 m/s 729 mmHg 88%
    10:00 +19°C° 0.2 mm 5 m/s 729 mmHg 89%
    11:00 +19°C° 0.2 mm 4 m/s 729 mmHg 89%
    12:00 +18°C° 0.4 mm 4 m/s 729 mmHg 88%
    13:00 +16°C° 0.4 mm 5 m/s 728 mmHg 88%
    14:00 +16°C° 0.4 mm 5 m/s 728 mmHg 88%
    15:00 +16°C° 0.5 mm 5 m/s 728 mmHg 88%
    16:00 +16°C° 0.5 mm 5 m/s 728 mmHg 88%
    17:00 +16°C° 0.5 mm 5 m/s 728 mmHg 88%
    18:00 +15°C° 1.4 mm 5 m/s 728 mmHg 89%
    19:00 +14°C° 1.4 mm 5 m/s 728 mmHg 90%
    20:00 +14°C° 1.4 mm 5 m/s 729 mmHg 91%
    21:00 +13°C° 0.3 mm 5 m/s 729 mmHg 91%
    22:00 +13°C° 0.3 mm 5 m/s 729 mmHg 91%
    23:00 +12°C° 0.3 mm 5 m/s 729 mmHg 91%

    24 Aprilie, Miercuri

    Timp Temperatura Precipitaţii Vânt Presiune Umiditate
    00:00 +12°C° 0 mm 5 m/s 728 mmHg 91%
    01:00 +12°C° 0 mm 5 m/s 728 mmHg 92%
    02:00 +10°C° 0 mm 5 m/s 728 mmHg 92%
    03:00 +10°C° 0 mm 5 m/s 728 mmHg 92%
    04:00 +10°C° 0 mm 5 m/s 728 mmHg 92%
    05:00 +9°C° 0 mm 5 m/s 728 mmHg 92%
    06:00 +11°C° 0 mm 4 m/s 729 mmHg 89%
    07:00 +12°C° 0 mm 4 m/s 729 mmHg 86%
    08:00 +13°C° 0 mm 3 m/s 730 mmHg 83%
    09:00 +14°C° 0 mm 3 m/s 729 mmHg 81%
    10:00 +16°C° 0 mm 3 m/s 729 mmHg 78%
    11:00 +17°C° 0 mm 3 m/s 729 mmHg 76%
    12:00 +17°C° 0 mm 3 m/s 728 mmHg 75%
    13:00 +18°C° 0 mm 4 m/s 728 mmHg 74%
    14:00 +18°C° 0 mm 4 m/s 727 mmHg 73%
    15:00 +18°C° 0 mm 4 m/s 727 mmHg 76%
    16:00 +18°C° 0 mm 3 m/s 727 mmHg 78%
    17:00 +17°C° 0 mm 2 m/s 727 mmHg 80%
    18:00 +16°C° 0 mm 2 m/s 727 mmHg 83%
    19:00 +16°C° 0 mm 2 m/s 727 mmHg 85%
    20:00 +15°C° 0 mm 1 m/s 727 mmHg 88%
    21:00 +15°C° 0 mm 2 m/s 727 mmHg 89%
    22:00 +15°C° 0 mm 2 m/s 727 mmHg 89%
    23:00 +15°C° 0 mm 2 m/s 726 mmHg 90%

    25 Aprilie, Joi

    Timp Temperatura Precipitaţii Vânt Presiune Umiditate
    00:00 +14°C° 0 mm 3 m/s 726 mmHg 90%
    01:00 +13°C° 0 mm 3 m/s 725 mmHg 89%
    02:00 +13°C° 0 mm 4 m/s 725 mmHg 89%
    03:00 +13°C° 0 mm 4 m/s 725 mmHg 88%
    04:00 +13°C° 0 mm 4 m/s 725 mmHg 87%
    05:00 +13°C° 0 mm 4 m/s 726 mmHg 86%
    06:00 +14°C° 0 mm 5 m/s 726 mmHg 82%
    07:00 +15°C° 0 mm 6 m/s 727 mmHg 77%
    08:00 +16°C° 0 mm 7 m/s 727 mmHg 73%
    09:00 +17°C° 0 mm 7 m/s 727 mmHg 68%
    10:00 +18°C° 0 mm 8 m/s 727 mmHg 62%
    11:00 +19°C° 0 mm 9 m/s 728 mmHg 57%
    12:00 +21°C° 0 mm 9 m/s 728 mmHg 55%
    13:00 +22°C° 0 mm 8 m/s 728 mmHg 53%
    14:00 +22°C° 0 mm 8 m/s 728 mmHg 51%
    15:00 +22°C° 0 mm 7 m/s 728 mmHg 54%
    16:00 +21°C° 0 mm 6 m/s 728 mmHg 58%
    17:00 +21°C° 0 mm 5 m/s 728 mmHg 62%
    18:00 +19°C° 0 mm 4 m/s 728 mmHg 66%
    19:00 +17°C° 0 mm 4 m/s 729 mmHg 70%
    20:00 +15°C° 0 mm 4 m/s 729 mmHg 74%
    21:00 +14°C° 0 mm 3 m/s 730 mmHg 76%
    22:00 +13°C° 0 mm 3 m/s 730 mmHg 77%
    23:00 +13°C° 0 mm 3 m/s 730 mmHg 79%

    26 Aprilie, Vineri

    Timp Temperatura Precipitaţii Vânt Presiune Umiditate
    00:00 +12°C° 0 mm 3 m/s 730 mmHg 79%
    01:00 +12°C° 0 mm 3 m/s 730 mmHg 79%
    02:00 +12°C° 0 mm 3 m/s 730 mmHg 79%
    03:00 +11°C° 0 mm 3 m/s 731 mmHg 80%
    04:00 +11°C° 0 mm 3 m/s 731 mmHg 80%
    05:00 +11°C° 0 mm 3 m/s 731 mmHg 81%
    06:00 +13°C° 0 mm 3 m/s 732 mmHg 75%
    07:00 +17°C° 0 mm 4 m/s 732 mmHg 68%
    08:00 +19°C° 0 mm 4 m/s 733 mmHg 62%
    09:00 +20°C° 0 mm 4 m/s 733 mmHg 58%
    10:00 +22°C° 0 mm 4 m/s 732 mmHg 54%
    11:00 +24°C° 0 mm 3 m/s 732 mmHg 49%
    12:00 +25°C° 0 mm 3 m/s 732 mmHg 47%
    13:00 +26°C° 0 mm 3 m/s 731 mmHg 45%
    14:00 +26°C° 0 mm 2 m/s 731 mmHg 43%
    15:00 +26°C° 0 mm 2 m/s 731 mmHg 47%
    16:00 +25°C° 0 mm 2 m/s 730 mmHg 50%
    17:00 +25°C° 0 mm 2 m/s 730 mmHg 54%
    18:00 +23°C° 0 mm 2 m/s 730 mmHg 59%
    19:00 +20°C° 0 mm 2 m/s 730 mmHg 64%
    20:00 +18°C° 0 mm 3 m/s 730 mmHg 68%
    21:00 +17°C° 0 mm 3 m/s 730 mmHg 71%
    22:00 +17°C° 0 mm 3 m/s 730 mmHg 74%
    23:00 +16°C° 0 mm 3 m/s 729 mmHg 77%
    Arată mai mult